User: anonymous   Login
Location: Unspecified
(0.0000°N, 0.0000°E)
Time: 08:50:26
(UTC+00:00)
Language:

TBA - TO BE ASSIGNED - Orbit

View from above orbital plane
View from above orbital plane
View from above satellite
View from above satellite

Ground track
Ground track

The orbit is defined by the following mean orbital elements,

1 68828U          26145.37002688 +.00000000 +00000-0 +16747-3 0 00005
2 68828  96.6463  63.8756 0018092 121.8658 238.4376 15.81598794    04
Epoch (UTC): 25 May 2026 08:52:50
Eccentricity: 0.0018092
inclination: 96.6463°
perigee height: 314 km
apogee height: 338 km
right ascension of ascending node: 63.8756°
argument of perigee: 121.8658°
revolutions per day: 15.81598794
mean anomaly at epoch: 238.4376°

The dashed part of the orbit path shows where the satellite is in the earth's shadow,  

DLR